CO-66
1 32791U 08021J 12102.61275961 .00001548 00000-0 19568-3 0 02685
2 32791 097.8053 165.2045 0014597 278.9988 080.9600 14.83196120213875
RS-30
1 32953U 08025A 12103.61154859 .00000010 00000-0 00000 0 0 6923
2 32953 082.5050 335.9256 0019733 089.9099 270.4251 12.43022245176419
TACSAT-3
1 35001U 09028A 12103.44846577 .00304504 41910-4 77950-3 0 9435
2 35001 040.4413 112.7092 0012523 134.7050 225.4807 15.94299744164050
PHARMSAT
1 35002U 09028B 12102.49245219 .00056073 00000-0 41617-3 0 08678
2 35002 040.4676 130.3740 0000802 010.7052 349.3789 15.71932142163785
METEOR-M
1 35865U 09049A 12103.70502722 -.00000017 00000-0 11864-4 0 3167
2 35865 098.6611 159.2372 0001670 235.9209 124.1812 14.21859123133296
RS-38
1 35869U 09049E 12103.87642946 .00000055 00000-0 44319-4 0 3276
2 35869 098.6572 159.4116 0003824 238.0969 121.9828 14.22063482133337
JUGNU
1 37839U 11058B 12102.88603950 .00000620 00000-0 19019-3 0 01296
2 37839 019.9612 039.8958 0018564 212.0137 147.9174 14.12042054025869
SRMSAT
1 37841U 11058D 12102.92118976 .00000264 00000-0 00000-0 0 01283
2 37841 019.9726 043.2536 0012544 184.6347 175.3972 14.10128488025830
RAX-2
1 37853U 11061D 12102.98905141 .00002000 00000-0 16891-3 0 01619
2 37853 101.7192 113.0639 0249456 179.5200 180.6290 14.79337826024615
AUBIESAT
1 37854U 11061E 12102.95988829 .00002574 00000-0 21026-3 0 01602
2 37854 101.7193 113.1866 0251390 178.9676 181.2093 14.79676315024594
HRBE
1 37855U 11061F 12102.96770779 .00002161 00000-0 17873-3 0 01615
2 37855 101.7200 113.1699 0251757 179.0082 181.1675 14.79558043024590
RS-39
1 38051U 11062C 12103.54867499 .00005053 00000-0 22473-3 0 2397
2 38051 051.6344 112.3794 0010599 157.9305 346.1198 15.23146128 11965
E-STAR
1 38079U 12006C 12103.39895173 .00047610 00000-0 11708-2 0 1436
2 38079 069.4932 105.5892 0765869 330.6148 025.3929 14.10092465 8299
GOLIAT
1 38085U 12006J 12103.41967040 .00043814 00000-0 11240-2 0 1397
2 38085 069.4891 105.6217 0765063 330.6244 025.3881 14.09414623 8294
